Weather History for Columbia, MO

Change the Weather History Date:

Monday, November 5, 2012

  Actual Average Record
Temperature  
Mean Temperature 43 °F 49 °F  
Max Temperature 44 °F 59 °F 82 °F (1915)
Min Temperature 42 °F 39 °F 19 °F (1976)
Degree Days  
Heating Degree Days 22 16  
Month to date heating degree days 91 75  
Since 1 July heating degree days 488 440  
Cooling Degree Days 0 0  
Month to date cooling degree days 0 0  
Year to date cooling degree days 1893 1247  
Moisture  
Dew Point 40 °F    
Average Humidity 85    
Maximum Humidity 100    
Minimum Humidity 70    
Precipitation  
Precipitation 0.12 in 0.10 in 1.29 in (1997)
Month to date precipitation 0.12 0.51  
Year to date precipitation 28.27 37.44  
Snow  
Snow 0.00 in 0.10 in 2.50 in (1951)
Month to date snowfall 0.0 0.1  
Since 1 July snowfall 0.0 0.1  
Since 1 September snowfall 0.0 0.1  
Snow Depth 0.00 in    
Sea Level Pressure  
Sea Level Pressure 30.04 in    
Wind  
Wind Speed 8 mph (ESE)    
Max Wind Speed 13 mph    
Max Gust Speed 17 mph    
Visibility 5 miles    
Events Rain    
T = Trace of Precipitation, MM = Missing Value Source: NWS Daily Summary

Daily Weather History Graph

Daily Weather History Graph

Search for Another Location

Airport:

Trip Planner

Search our weather history database for the weather conditions in past years. The results will help you decide how hot, cold, wet, or windy it might be!

Date:

Astronomy

Nov. 05, 2012 Rise Set
Actual Time 6:40 AM CST 5:03 PM CST
Civil Twilight 6:12 AM CST 5:31 PM CST
Nautical Twilight 5:41 AM CST 6:03 PM CST
Astronomical Twilight 5:10 AM CST 6:34 PM CST
Moon 10:41 PM CST (11/5) 12:00 PM CST (11/5)
Length of Visible Light 11h 18m
Length of Day
10h 22m
Waning Gibbous, 62% of the Moon is Illuminated
Nov 5
Waning Gibbous
Nov 6
Last Quarter
Nov 13
New
Nov 20
First Quarter
Nov 28
Full

Hourly Weather History & Observations

Time (CST) Temp. Windchill Dew Point Humidity Pressure Visibility Wind Dir Wind Speed Gust Speed Precip Events Conditions
12:54 AM 44.1 °F 39.0 °F 35.1 °F 71% 30.09 in 10.0 mi ESE 9.2 mph - 0.00 in Rain Light Rain
1:54 AM 43.0 °F 37.7 °F 36.0 °F 76% 30.08 in 10.0 mi SE 9.2 mph - 0.01 in Rain Light Rain
2:54 AM 42.1 °F 36.6 °F 37.0 °F 82% 30.06 in 8.0 mi SE 9.2 mph - 0.01 in Rain Light Rain
3:54 AM 42.1 °F 36.6 °F 37.9 °F 85% 30.04 in 9.0 mi SE 9.2 mph - 0.04 in Rain Light Rain
4:54 AM 42.1 °F 36.1 °F 39.0 °F 89% 30.01 in 8.0 mi SE 10.4 mph - 0.02 in Rain Light Rain
5:54 AM 42.1 °F 36.6 °F 39.0 °F 89% 30.01 in 10.0 mi SE 9.2 mph - 0.01 in   Overcast
6:54 AM 42.1 °F 36.6 °F 39.9 °F 92% 30.00 in 10.0 mi ESE 9.2 mph - 0.01 in   Overcast
7:54 AM 43.0 °F 37.7 °F 41.0 °F 93% 30.01 in 7.0 mi ESE 9.2 mph - 0.01 in Rain Light Rain
8:54 AM 43.0 °F 37.2 °F 41.0 °F 93% 30.01 in 8.0 mi ESE 10.4 mph - 0.00 in   Overcast
9:54 AM 43.0 °F 37.2 °F 41.0 °F 93% 30.01 in 8.0 mi ESE 10.4 mph - 0.00 in   Overcast
10:05 AM 42.8 °F 36.6 °F 41.0 °F 93% 30.00 in 8.0 mi ESE 11.5 mph - N/A   Overcast
10:12 AM 44.6 °F 38.8 °F 41.0 °F 87% 30.00 in 8.0 mi ESE 11.5 mph - N/A   Overcast
10:30 AM 44.6 °F 38.4 °F 41.0 °F 87% 30.01 in 8.0 mi East 12.7 mph - N/A   Overcast
10:46 AM 44.6 °F 39.2 °F 41.0 °F 87% 30.01 in 8.0 mi ESE 10.4 mph - N/A   Overcast
10:54 AM 44.1 °F 38.6 °F 42.1 °F 93% 30.02 in 8.0 mi ESE 10.4 mph - N/A   Overcast
11:54 AM 44.1 °F 39.0 °F 41.0 °F 89% 30.02 in 8.0 mi East 9.2 mph - N/A   Overcast
12:54 PM 44.1 °F 39.0 °F 41.0 °F 89% 30.01 in 6.0 mi ESE 9.2 mph - N/A   Overcast
1:18 PM 42.8 °F 37.5 °F 41.0 °F 93% 30.00 in 2.5 mi ESE 9.2 mph - N/A   Overcast
1:54 PM 44.1 °F 39.5 °F 42.1 °F 93% 30.01 in 2.0 mi East 8.1 mph - N/A   Overcast
2:54 PM 43.0 °F 38.2 °F 41.0 °F 93% 30.02 in 1.8 mi East 8.1 mph - 0.01 in   Overcast
3:54 PM 43.0 °F 37.7 °F 41.0 °F 93% 30.03 in 1.8 mi East 9.2 mph - N/A   Overcast
3:56 PM 42.8 °F 37.0 °F 41.0 °F 93% 30.02 in 2.5 mi East 10.4 mph - N/A   Overcast
4:54 PM 43.0 °F 38.2 °F 41.0 °F 93% 30.05 in 2.5 mi ENE 8.1 mph - N/A   Overcast
4:58 PM 42.8 °F 38.0 °F 41.0 °F 93% 30.04 in 3.0 mi ENE 8.1 mph - N/A   Overcast
5:32 PM 42.8 °F 38.6 °F 41.0 °F 93% 30.06 in 3.0 mi East 6.9 mph - N/A   Overcast
5:54 PM 43.0 °F 38.8 °F 41.0 °F 93% 30.08 in 2.0 mi East 6.9 mph - N/A   Overcast
6:54 PM 43.0 °F 38.8 °F 41.0 °F 93% 30.09 in 2.0 mi ENE 6.9 mph - N/A   Overcast
7:54 PM 43.0 °F 40.3 °F 42.1 °F 97% 30.10 in 2.5 mi East 4.6 mph - N/A   Overcast
8:54 PM 43.0 °F 39.5 °F 41.0 °F 93% 30.10 in 2.0 mi East 5.8 mph - N/A   Overcast
9:09 PM 42.8 °F 40.1 °F 41.0 °F 93% 30.09 in 2.5 mi ESE 4.6 mph - 0.01 in   Overcast
9:54 PM 43.0 °F 38.8 °F 41.0 °F 93% 30.09 in 2.5 mi ESE 6.9 mph - 0.01 in   Overcast
10:07 PM 42.8 °F 40.1 °F 41.0 °F 93% 30.08 in 3.0 mi ESE 4.6 mph - N/A   Overcast
10:54 PM 43.0 °F 40.3 °F 41.0 °F 93% 30.08 in 4.0 mi ESE 4.6 mph - N/A   Overcast
11:54 PM 43.0 °F 41.3 °F 41.0 °F 93% 30.09 in 4.0 mi ESE 3.5 mph - N/A   Overcast